Time,TemperatureF,DewpointF,PressureIn,WindDirection,WindDirectionDegrees,WindSpeedMPH,WindSpeedGustMPH,Humidity,HourlyPrecipIn,Conditions,Clouds,dailyrainin,SoftwareType,DateUTC
2013-05-20 00:01:00,58.0,36.0,29.98,North,360,18.0,27.0,44,0.00,,,0.00,,2013-05-20 07:01:00,
2013-05-20 00:21:00,58.0,36.0,29.99,North,360,16.0,32.0,44,0.00,,,0.00,,2013-05-20 07:21:00,
2013-05-20 00:32:00,58.0,36.0,29.99,NNE,12,17.0,31.0,44,0.00,,,0.00,,2013-05-20 07:32:00,
2013-05-20 00:41:00,58.0,36.0,29.99,NNE,12,17.0,31.0,44,0.00,,,0.00,,2013-05-20 07:41:00,
2013-05-20 00:52:00,58.0,37.0,30.00,NNW,344,15.0,25.0,46,0.00,,,0.00,,2013-05-20 07:52:00,
2013-05-20 01:01:00,57.0,37.0,30.00,North,5,9.0,16.0,47,0.00,,,0.00,,2013-05-20 08:01:00,
2013-05-20 01:21:00,57.0,37.0,29.99,NNW,343,16.0,22.0,47,0.00,,,0.00,,2013-05-20 08:21:00,
2013-05-20 01:31:00,57.0,36.0,29.97,North,5,19.0,32.0,45,0.00,,,0.00,,2013-05-20 08:31:00,
2013-05-20 01:41:00,57.0,36.0,29.97,North,5,19.0,32.0,45,0.00,,,0.00,,2013-05-20 08:41:00,
2013-05-20 01:52:00,57.0,36.0,29.98,North,355,18.0,30.0,45,0.00,,,0.00,,2013-05-20 08:52:00,
2013-05-20 02:01:00,57.0,35.0,29.98,North,360,13.0,26.0,44,0.00,,,0.00,,2013-05-20 09:01:00,
2013-05-20 02:12:00,57.0,35.0,29.98,North,360,13.0,26.0,44,0.00,,,0.00,,2013-05-20 09:12:00,
2013-05-20 02:21:00,57.0,35.0,29.98,NNW,348,8.0,21.0,44,0.00,,,0.00,,2013-05-20 09:21:00,
2013-05-20 02:32:00,58.0,34.0,29.98,North,350,8.0,20.0,41,0.00,,,0.00,,2013-05-20 09:32:00,
2013-05-20 02:42:00,58.0,34.0,29.98,North,350,8.0,20.0,41,0.00,,,0.00,,2013-05-20 09:42:00,
2013-05-20 02:52:00,58.0,36.0,29.97,NNW,338,11.0,19.0,43,0.00,,,0.00,,2013-05-20 09:52:00,
2013-05-20 03:03:00,58.0,36.0,29.97,North,355,14.0,23.0,43,0.00,,,0.00,,2013-05-20 10:03:00,
2013-05-20 03:12:00,58.0,36.0,29.97,North,355,14.0,23.0,43,0.00,,,0.00,,2013-05-20 10:12:00,
2013-05-20 03:22:00,59.0,38.0,29.97,North,355,10.0,24.0,45,0.00,,,0.00,,2013-05-20 10:22:00,
2013-05-20 03:32:00,59.0,38.0,29.97,North,355,10.0,24.0,45,0.00,,,0.00,,2013-05-20 10:32:00,
2013-05-20 03:41:00,59.0,38.0,29.97,North,355,10.0,24.0,45,0.00,,,0.00,,2013-05-20 10:41:00,
2013-05-20 03:52:00,61.0,38.0,29.98,NNW,342,5.0,14.0,42,0.00,,,0.00,,2013-05-20 10:52:00,
2013-05-20 04:02:00,60.0,37.0,29.97,NNW,343,5.0,13.0,43,0.00,,,0.00,,2013-05-20 11:02:00,
2013-05-20 04:12:00,60.0,37.0,29.97,NNW,343,5.0,13.0,43,0.00,,,0.00,,2013-05-20 11:12:00,
2013-05-20 04:21:00,60.0,37.0,29.97,North,360,6.0,11.0,43,0.00,,,0.00,,2013-05-20 11:21:00,
2013-05-20 04:32:00,60.0,37.0,29.97,North,355,6.0,10.0,43,0.00,,,0.00,,2013-05-20 11:32:00,
2013-05-20 04:41:00,60.0,37.0,29.97,North,355,6.0,10.0,43,0.00,,,0.00,,2013-05-20 11:41:00,
2013-05-20 04:52:00,59.0,36.0,29.98,North,5,8.0,12.0,42,0.00,,,0.00,,2013-05-20 11:52:00,
2013-05-20 05:01:00,58.0,30.0,29.98,North,355,0.0,5.0,34,0.00,,,0.00,,2013-05-20 12:01:00,
2013-05-20 05:11:00,58.0,30.0,29.98,North,355,0.0,5.0,34,0.00,,,0.00,,2013-05-20 12:11:00,
2013-05-20 05:21:00,59.0,30.0,29.98,North,355,0.0,4.0,33,0.00,,,0.00,,2013-05-20 12:21:00,
2013-05-20 05:31:00,56.0,28.0,30.00,North,355,0.0,3.0,34,0.00,,,0.00,,2013-05-20 12:31:00,
2013-05-20 05:41:00,56.0,28.0,30.00,North,355,0.0,3.0,34,0.00,,,0.00,,2013-05-20 12:41:00,
2013-05-20 05:52:00,55.0,28.0,30.00,North,355,3.0,5.0,35,0.00,,,0.00,,2013-05-20 12:52:00,
2013-05-20 06:01:00,55.0,29.0,30.01,North,355,1.0,4.0,36,0.00,,,0.00,,2013-05-20 13:01:00,
2013-05-20 06:11:00,55.0,29.0,30.01,North,355,1.0,4.0,36,0.00,,,0.00,,2013-05-20 13:11:00,
2013-05-20 06:21:00,54.0,29.0,30.01,NNW,340,3.0,5.0,38,0.00,,,0.00,,2013-05-20 13:21:00,
2013-05-20 06:31:00,54.0,29.0,30.02,NNW,346,3.0,6.0,38,0.00,,,0.00,,2013-05-20 13:31:00,
2013-05-20 06:41:00,55.0,29.0,30.02,NNW,346,1.0,4.0,36,0.00,,,0.00,,2013-05-20 13:41:00,
2013-05-20 06:52:00,55.0,29.0,30.02,NNW,346,1.0,4.0,36,0.00,,,0.00,,2013-05-20 13:52:00,
2013-05-20 07:01:00,59.0,28.0,30.03,WNW,290,2.0,6.0,30,0.00,,,0.00,,2013-05-20 14:01:00,
2013-05-20 07:11:00,59.0,28.0,30.03,WNW,290,2.0,6.0,30,0.00,,,0.00,,2013-05-20 14:11:00,
2013-05-20 07:21:00,60.0,28.0,30.03,NW,304,0.0,5.0,30,0.00,,,0.00,,2013-05-20 14:21:00,
2013-05-20 07:31:00,59.0,27.0,30.03,West,277,0.0,6.0,29,0.00,,,0.00,,2013-05-20 14:31:00,
2013-05-20 07:41:00,59.0,27.0,30.03,West,277,0.0,6.0,29,0.00,,,0.00,,2013-05-20 14:41:00,
2013-05-20 07:52:00,61.0,26.0,30.03,NNW,339,3.0,7.0,26,0.00,,,0.00,,2013-05-20 14:52:00,
2013-05-20 08:01:00,62.0,23.0,30.04,SW,215,1.0,15.0,22,0.00,,,0.00,,2013-05-20 15:01:00,
2013-05-20 08:21:00,63.0,24.0,30.05,WNW,298,5.0,12.0,22,0.00,,,0.00,,2013-05-20 15:21:00,
2013-05-20 08:33:00,63.0,24.0,30.05,WNW,298,5.0,12.0,22,0.00,,,0.00,,2013-05-20 15:33:00,
2013-05-20 08:42:00,64.0,22.0,30.05,South,187,2.0,15.0,20,0.00,,,0.00,,2013-05-20 15:42:00,
2013-05-20 08:53:00,64.0,22.0,30.05,South,187,2.0,15.0,20,0.00,,,0.00,,2013-05-20 15:53:00,
2013-05-20 09:02:00,64.0,22.0,30.06,North,355,6.0,15.0,20,0.00,,,0.00,,2013-05-20 16:02:00,
2013-05-20 09:22:00,65.0,23.0,30.06,North,349,4.0,13.0,20,0.00,,,0.00,,2013-05-20 16:22:00,
2013-05-20 09:32:00,65.0,23.0,30.06,South,174,3.0,17.0,20,0.00,,,0.00,,2013-05-20 16:32:00,
2013-05-20 09:42:00,65.0,23.0,30.06,South,174,3.0,17.0,20,0.00,,,0.00,,2013-05-20 16:42:00,
2013-05-20 09:52:00,66.0,24.0,30.05,SSW,204,4.0,19.0,20,0.00,,,0.00,,2013-05-20 16:52:00,
2013-05-20 10:02:00,66.0,24.0,30.07,WSW,253,4.0,11.0,20,0.00,,,0.00,,2013-05-20 17:02:00,
2013-05-20 10:11:00,66.0,23.0,30.06,NNE,22,7.0,15.0,19,0.00,,,0.00,,2013-05-20 17:11:00,
2013-05-20 10:22:00,66.0,23.0,30.06,NNE,22,7.0,15.0,19,0.00,,,0.00,,2013-05-20 17:22:00,
2013-05-20 10:32:00,67.0,23.0,30.06,SSW,197,4.0,13.0,19,0.00,,,0.00,,2013-05-20 17:32:00,
2013-05-20 10:45:00,67.0,23.0,30.06,SSW,197,4.0,13.0,19,0.00,,,0.00,,2013-05-20 17:45:00,
2013-05-20 10:53:00,67.0,22.0,30.06,SW,224,3.0,16.0,18,0.00,,,0.00,,2013-05-20 17:53:00,
2013-05-20 11:02:00,68.0,24.0,30.07,NW,309,4.0,12.0,19,0.00,,,0.00,,2013-05-20 18:02:00,
2013-05-20 11:12:00,68.0,23.0,30.07,WSW,257,4.0,9.0,18,0.00,,,0.00,,2013-05-20 18:12:00,
2013-05-20 11:23:00,68.0,23.0,30.07,WSW,257,4.0,9.0,18,0.00,,,0.00,,2013-05-20 18:23:00,
2013-05-20 11:32:00,69.0,24.0,30.07,SSW,192,3.0,12.0,18,0.00,,,0.00,,2013-05-20 18:32:00,
2013-05-20 11:41:00,69.0,24.0,30.07,SSW,192,3.0,12.0,18,0.00,,,0.00,,2013-05-20 18:41:00,
2013-05-20 11:55:00,69.0,24.0,30.07,South,170,6.0,13.0,18,0.00,,,0.00,,2013-05-20 18:55:00,
2013-05-20 12:04:00,70.0,25.0,30.07,SSE,163,4.0,15.0,18,0.00,,,0.00,,2013-05-20 19:04:00,
2013-05-20 12:11:00,71.0,24.0,30.06,SW,230,8.0,19.0,17,0.00,,,0.00,,2013-05-20 19:11:00,
2013-05-20 12:21:00,71.0,24.0,30.06,SW,230,8.0,19.0,17,0.00,,,0.00,,2013-05-20 19:21:00,
2013-05-20 12:32:00,71.0,23.0,30.06,SW,227,8.0,18.0,16,0.00,,,0.00,,2013-05-20 19:32:00,
2013-05-20 12:42:00,71.0,23.0,30.06,NNW,337,3.0,16.0,16,0.00,,,0.00,,2013-05-20 19:42:00,
2013-05-20 12:52:00,71.0,23.0,30.06,NNW,337,3.0,16.0,16,0.00,,,0.00,,2013-05-20 19:52:00,
2013-05-20 13:01:00,72.0,23.0,30.06,SSW,195,11.0,21.0,16,0.00,,,0.00,,2013-05-20 20:01:00,
2013-05-20 13:11:00,72.0,22.0,30.06,SSE,155,5.0,18.0,15,0.00,,,0.00,,2013-05-20 20:11:00,
2013-05-20 13:21:00,72.0,22.0,30.06,SSE,155,5.0,18.0,15,0.00,,,0.00,,2013-05-20 20:21:00,
2013-05-20 13:32:00,73.0,23.0,30.06,West,269,2.0,13.0,15,0.00,,,0.00,,2013-05-20 20:32:00,
2013-05-20 13:42:00,73.0,24.0,30.05,South,179,6.0,15.0,16,0.00,,,0.00,,2013-05-20 20:42:00,
2013-05-20 13:52:00,73.0,24.0,30.05,South,179,6.0,15.0,16,0.00,,,0.00,,2013-05-20 20:52:00,
2013-05-20 14:01:00,74.0,23.0,30.05,SW,233,5.0,15.0,15,0.00,,,0.00,,2013-05-20 21:01:00,
2013-05-20 14:11:00,74.0,25.0,30.05,South,190,4.0,10.0,16,0.00,,,0.00,,2013-05-20 21:11:00,
2013-05-20 14:21:00,74.0,25.0,30.05,South,190,4.0,10.0,16,0.00,,,0.00,,2013-05-20 21:21:00,
2013-05-20 14:32:00,73.0,23.0,30.05,South,185,7.0,17.0,15,0.00,,,0.00,,2013-05-20 21:32:00,
2013-05-20 14:42:00,74.0,23.0,30.05,SW,235,4.0,12.0,15,0.00,,,0.00,,2013-05-20 21:42:00,
2013-05-20 14:53:00,74.0,23.0,30.05,SW,235,4.0,12.0,15,0.00,,,0.00,,2013-05-20 21:53:00,
2013-05-20 15:02:00,75.0,23.0,30.04,WSW,252,4.0,13.0,14,0.00,,,0.00,,2013-05-20 22:02:00,
2013-05-20 15:12:00,75.0,23.0,30.04,NW,315,8.0,14.0,14,0.00,,,0.00,,2013-05-20 22:12:00,
2013-05-20 15:22:00,75.0,23.0,30.04,NW,315,8.0,14.0,14,0.00,,,0.00,,2013-05-20 22:22:00,
2013-05-20 15:33:00,76.0,23.0,30.03,SSW,202,6.0,10.0,14,0.00,,,0.00,,2013-05-20 22:33:00,
2013-05-20 15:41:00,76.0,23.0,30.03,SSW,202,6.0,10.0,14,0.00,,,0.00,,2013-05-20 22:41:00,
2013-05-20 15:52:00,77.0,20.0,30.02,WSW,243,6.0,8.0,12,0.00,,,0.00,,2013-05-20 22:52:00,
2013-05-20 16:02:00,77.0,22.0,30.02,SSW,210,5.0,13.0,13,0.00,,,0.00,,2013-05-20 23:02:00,
2013-05-20 16:12:00,77.0,22.0,30.02,SSW,210,5.0,13.0,13,0.00,,,0.00,,2013-05-20 23:12:00,
2013-05-20 16:21:00,77.0,20.0,30.01,South,173,3.0,15.0,12,0.00,,,0.00,,2013-05-20 23:21:00,
2013-05-20 16:32:00,77.0,22.0,30.01,SSW,210,6.0,11.0,13,0.00,,,0.00,,2013-05-20 23:32:00,
2013-05-20 16:41:00,77.0,22.0,30.01,SSW,210,6.0,11.0,13,0.00,,,0.00,,2013-05-20 23:41:00,
2013-05-20 16:52:00,76.0,23.0,30.00,South,183,9.0,17.0,14,0.00,,,0.00,,2013-05-20 23:52:00,
2013-05-20 17:01:00,76.0,22.0,30.00,SSW,198,3.0,11.0,13,0.00,,,0.00,,2013-05-21 00:01:00,
2013-05-20 17:11:00,76.0,22.0,30.00,SSW,198,3.0,11.0,13,0.00,,,0.00,,2013-05-21 00:11:00,
2013-05-20 17:21:00,77.0,24.0,30.00,SSW,195,3.0,6.0,14,0.00,,,0.00,,2013-05-21 00:21:00,
2013-05-20 17:31:00,76.0,20.0,29.99,SW,218,1.0,9.0,12,0.00,,,0.00,,2013-05-21 00:31:00,
2013-05-20 17:41:00,77.0,22.0,29.99,WSW,252,2.0,5.0,13,0.00,,,0.00,,2013-05-21 00:41:00,
2013-05-20 17:52:00,77.0,22.0,29.99,WSW,252,2.0,5.0,13,0.00,,,0.00,,2013-05-21 00:52:00,
2013-05-20 18:01:00,75.0,36.0,29.99,NNW,332,7.0,12.0,24,0.00,,,0.00,,2013-05-21 01:01:00,
2013-05-20 18:11:00,75.0,36.0,29.99,NNW,332,7.0,12.0,24,0.00,,,0.00,,2013-05-21 01:11:00,
2013-05-20 18:21:00,74.0,36.0,29.99,North,355,4.0,11.0,25,0.00,,,0.00,,2013-05-21 01:21:00,
2013-05-20 18:32:00,73.0,36.0,29.98,NNW,340,6.0,12.0,26,0.00,,,0.00,,2013-05-21 01:32:00,
2013-05-20 18:42:00,71.0,35.0,29.98,North,5,6.0,11.0,27,0.00,,,0.00,,2013-05-21 01:42:00,
2013-05-20 18:52:00,71.0,35.0,29.98,North,5,6.0,11.0,27,0.00,,,0.00,,2013-05-21 01:52:00,
2013-05-20 19:01:00,70.0,35.0,29.98,NNW,327,7.0,12.0,28,0.00,,,0.00,,2013-05-21 02:01:00,
2013-05-20 19:11:00,70.0,35.0,29.98,NW,324,8.0,13.0,28,0.00,,,0.00,,2013-05-21 02:11:00,
2013-05-20 19:21:00,70.0,35.0,29.98,NW,324,8.0,13.0,28,0.00,,,0.00,,2013-05-21 02:21:00,
2013-05-20 19:32:00,69.0,35.0,29.99,North,360,9.0,13.0,29,0.00,,,0.00,,2013-05-21 02:32:00,
2013-05-20 19:41:00,68.0,36.0,29.99,WNW,299,11.0,15.0,31,0.00,,,0.00,,2013-05-21 02:41:00,
2013-05-20 19:52:00,68.0,36.0,29.99,WNW,299,11.0,15.0,31,0.00,,,0.00,,2013-05-21 02:52:00,
2013-05-20 20:02:00,68.0,36.0,30.00,North,355,9.0,14.0,31,0.00,,,0.00,,2013-05-21 03:02:00,
2013-05-20 20:11:00,67.0,35.0,30.00,NNW,344,9.0,14.0,31,0.00,,,0.00,,2013-05-21 03:11:00,
2013-05-20 20:21:00,67.0,35.0,30.00,NNW,344,9.0,14.0,31,0.00,,,0.00,,2013-05-21 03:21:00,
2013-05-20 20:33:00,66.0,36.0,30.00,NNW,348,10.0,14.0,33,0.00,,,0.00,,2013-05-21 03:33:00,
2013-05-20 20:42:00,66.0,37.0,30.00,North,350,10.0,14.0,34,0.00,,,0.00,,2013-05-21 03:42:00,
2013-05-20 20:53:00,66.0,37.0,30.00,North,350,10.0,14.0,34,0.00,,,0.00,,2013-05-21 03:53:00,
2013-05-20 21:03:00,66.0,36.0,30.00,NNW,341,10.0,15.0,33,0.00,,,0.00,,2013-05-21 04:03:00,
2013-05-20 21:12:00,65.0,35.0,30.00,North,355,9.0,15.0,33,0.00,,,0.00,,2013-05-21 04:12:00,
2013-05-20 21:22:00,65.0,35.0,30.00,North,355,9.0,15.0,33,0.00,,,0.00,,2013-05-21 04:22:00,
2013-05-20 21:33:00,65.0,35.0,30.00,North,11,8.0,13.0,33,0.00,,,0.00,,2013-05-21 04:33:00,
2013-05-20 21:42:00,65.0,35.0,30.00,North,11,8.0,13.0,33,0.00,,,0.00,,2013-05-21 04:42:00,
2013-05-20 21:52:00,65.0,36.0,30.00,North,351,8.0,12.0,34,0.00,,,0.00,,2013-05-21 04:52:00,
2013-05-20 22:02:00,65.0,36.0,30.01,NNW,329,8.0,13.0,34,0.00,,,0.00,,2013-05-21 05:02:00,
2013-05-20 22:11:00,66.0,34.0,30.01,North,350,10.0,15.0,31,0.00,,,0.00,,2013-05-21 05:11:00,
2013-05-20 22:21:00,66.0,34.0,30.01,North,350,10.0,15.0,31,0.00,,,0.00,,2013-05-21 05:21:00,
2013-05-20 22:31:00,66.0,35.0,30.01,NNW,342,11.0,14.0,32,0.00,,,0.00,,2013-05-21 05:31:00,
2013-05-20 22:42:00,66.0,34.0,30.01,North,360,11.0,16.0,31,0.00,,,0.00,,2013-05-21 05:42:00,
2013-05-20 22:52:00,66.0,34.0,30.01,North,360,11.0,16.0,31,0.00,,,0.00,,2013-05-21 05:52:00,
2013-05-20 23:01:00,66.0,34.0,30.01,NNW,346,9.0,17.0,31,0.00,,,0.00,,2013-05-21 06:01:00,
2013-05-20 23:11:00,66.0,34.0,30.01,NNW,346,9.0,17.0,31,0.00,,,0.00,,2013-05-21 06:11:00,
2013-05-20 23:21:00,65.0,34.0,30.01,NNW,330,9.0,15.0,31,0.00,,,0.00,,2013-05-21 06:21:00,
2013-05-20 23:31:00,66.0,34.0,30.00,North,5,12.0,17.0,30,0.00,,,0.00,,2013-05-21 06:31:00,
2013-05-20 23:41:00,66.0,34.0,30.00,North,5,12.0,17.0,30,0.00,,,0.00,,2013-05-21 06:41:00,
2013-05-20 23:52:00,65.0,32.0,30.00,NNE,18,7.0,18.0,29,0.00,,,0.00,,2013-05-21 06:52:00,